Starlink 1265

operational
NORAD ID: 45406 Int'l Des: 2020-019 Owner: SPXS Country: US Constellation: starlink
LEOCIRCULAR

关于 Starlink 1265

正在加载描述...

实时位置

正在加载3D地球...

即将过境

高度历史

Altitude vs Time

uPlot chart will show altitude changes over time

两行轨道根数

1 45406U 20019AY 26062.49600627 .00011163 00000-0 38822-3 0 9999
2 45406 53.1596 158.1144 0001186 88.2195 271.8941 15.30220682329020
Epoch: Mar 3, 2026 • Age: 42 hours

当前状态

高度 478.1 km
速度 7.63 km/s
星下点 -10.20°S, 77.69°E
发射日期 Mar 18, 2020
运行时间 5.9 years
类型 internet

技术详情

分类 Payload
质量 260.00 kg
干质量 248.00 kg
总质量 260.00 kg
长度 0.20 m
直径 2.80 m
跨度 9.00 m
形状 Box + pan
制造商 SPXS
平台类型 Starlink
阶段状态 In Orbit
所有者/国家 SPXS/US

大型星座

Loading constellations...